Weather History for KJAC - October, 2012

Change the Weather History Date:

Monday, October 8, 2012

  Actual Average Record
Temperature  
Mean Temperature 38 °F -  
Max Temperature 60 °F 59 °F 75 °F (1980)
Min Temperature 15 °F 24 °F 13 °F (1968)
Degree Days  
Heating Degree Days 28    
Moisture  
Dew Point 11 °F    
Average Humidity 46    
Maximum Humidity 86    
Minimum Humidity 13    
Precipitation  
Precipitation 0.00 in - - ()
Sea Level Pressure  
Sea Level Pressure 30.06 in    
Wind  
Wind Speed 6 mph (NW)    
Max Wind Speed 16 mph    
Max Gust Speed 18 mph    
Visibility 10 miles    
Events      
Averages and records for this station are not official NWS values.
T = Trace of Precipitation, MM = Missing Value Source: NWS Daily Summary

Daily Weather History Graph

Daily Weather History Graph

Search for Another Location

Airport or City:

Trip Planner

Search our weather history database for the weather conditions in past years. The results will help you decide how hot, cold, wet, or windy it might be!

Date:

Astronomy

Oct. 08, 2012 Rise Set
Actual Time 7:29 AM MDT 6:50 PM MDT
Civil Twilight 7:00 AM MDT 7:19 PM MDT
Nautical Twilight 6:27 AM MDT 7:52 PM MDT
Astronomical Twilight 5:54 AM MDT 8:25 PM MDT
Moon 12:00 AM MDT (10/8) 2:53 PM MDT (10/8)
Length of Visible Light 12h 18m
Length of Day
11h 21m
Last Quarter, 46% of the Moon is Illuminated
Oct 8
Last Quarter
Oct 15
New
Oct 21
First Quarter
Oct 29
Full
Nov 6
Last Quarter

Hourly Weather History & Observations

Time (MDT) Temp. Windchill Dew Point Humidity Pressure Visibility Wind Dir Wind Speed Gust Speed Precip Events Conditions
12:15 AM 24.8 °F 20.5 °F 15.8 °F 69% 30.13 in 10.0 mi NNE 3.5 mph - N/A   Clear
12:35 AM 24.8 °F 16.9 °F 15.8 °F 69% 30.12 in 10.0 mi NNE 6.9 mph - N/A   Clear
12:55 AM 24.8 °F 15.3 °F 15.8 °F 69% 30.13 in 10.0 mi North 9.2 mph - N/A   Clear
1:15 AM 24.8 °F 15.3 °F 14.0 °F 64% 30.13 in 10.0 mi North 9.2 mph - N/A   Clear
1:35 AM 23.0 °F 17.0 °F 14.0 °F 68% 30.13 in 10.0 mi North 4.6 mph - N/A   Clear
1:55 AM 23.0 °F 17.0 °F 14.0 °F 68% 30.13 in 10.0 mi NNE 4.6 mph - N/A   Clear
2:15 AM 23.0 °F 14.7 °F 14.0 °F 68% 30.13 in 10.0 mi NNE 6.9 mph - N/A   Clear
2:35 AM 21.2 °F 13.6 °F 14.0 °F 74% 30.13 in 10.0 mi NE 5.8 mph - N/A   Clear
2:55 AM 23.0 °F 17.0 °F 15.8 °F 74% 30.13 in 10.0 mi NNE 4.6 mph - N/A   Clear
3:15 AM 21.2 °F 13.6 °F 12.2 °F 68% 30.13 in 10.0 mi NNE 5.8 mph - N/A   Clear
3:35 AM 21.2 °F 12.6 °F 12.2 °F 68% 30.13 in 10.0 mi North 6.9 mph - N/A   Clear
3:55 AM 19.4 °F 12.8 °F 12.2 °F 74% 30.12 in 10.0 mi NNE 4.6 mph - N/A   Clear
4:15 AM 19.4 °F - 12.2 °F 74% 30.12 in 10.0 mi Calm Calm - N/A   Clear
4:35 AM 19.4 °F 9.5 °F 14.0 °F 80% 30.12 in 10.0 mi North 8.1 mph - N/A   Clear
5:15 AM 15.8 °F 6.1 °F 10.4 °F 79% 30.12 in 10.0 mi North 6.9 mph - N/A   Clear
5:35 AM 17.6 °F 8.2 °F 12.2 °F 79% 30.11 in 10.0 mi North 6.9 mph - N/A   Clear
5:55 AM 15.8 °F 7.2 °F 10.4 °F 79% 30.11 in 10.0 mi NE 5.8 mph - N/A   Clear
6:15 AM 17.6 °F 8.2 °F 12.2 °F 79% 30.11 in 10.0 mi North 6.9 mph - N/A   Clear
6:35 AM 15.8 °F 10.2 °F 12.2 °F 86% 30.11 in 10.0 mi NE 3.5 mph - N/A   Clear
6:53 AM 17.6 °F 8.2 °F 12.2 °F 79% 30.11 in 10.0 mi North 6.9 mph - N/A   Clear
7:53 AM 19.4 °F 11.5 °F 12.2 °F 74% 30.11 in 10.0 mi North 5.8 mph - N/A   Clear
8:51 AM 23.0 °F - 15.8 °F 74% 30.12 in 10.0 mi Calm Calm - N/A   Partly Cloudy
9:51 AM 32.0 °F - 15.8 °F 51% 30.12 in 10.0 mi Calm Calm - N/A   Partly Cloudy
10:54 AM 37.4 °F - 12.2 °F 36% 30.09 in 10.0 mi Calm Calm - N/A   Scattered Clouds
11:57 AM 44.6 °F 40.2 °F 12.2 °F 27% 30.06 in 10.0 mi South 8.1 mph - N/A   Clear
12:53 PM 51.8 °F - 12.2 °F 21% 30.02 in 10.0 mi South 8.1 mph - N/A   Clear
1:53 PM 57.2 °F - 10.4 °F 16% 29.99 in 10.0 mi SSW 11.5 mph 17.3 mph N/A   Clear
2:51 PM 57.2 °F - 26.6 °F 31% 29.97 in 10.0 mi SSW 9.2 mph - N/A   Clear
3:53 PM 60.8 °F - 10.4 °F 14% 29.95 in 10.0 mi SSW 11.5 mph 18.4 mph N/A   Clear
4:58 PM 60.8 °F - 8.6 °F 13% 29.94 in 10.0 mi South 8.1 mph - N/A   Clear
5:57 PM 57.2 °F - 6.8 °F 13% 29.95 in 10.0 mi West 11.5 mph - N/A   Clear
6:58 PM 53.6 °F - 5.0 °F 14% 29.95 in 10.0 mi WSW 5.8 mph - N/A   Clear
7:53 PM 51.8 °F - 5.0 °F 15% 29.96 in 10.0 mi SE 4.6 mph - N/A   Clear
8:51 PM 51.8 °F - 5.0 °F 15% 29.97 in 10.0 mi SSW 16.1 mph - N/A   Clear
8:55 PM 51.8 °F - 3.2 °F 14% 29.97 in 10.0 mi South 5.8 mph - N/A   Clear
9:15 PM 50.0 °F - 3.2 °F 15% 29.97 in 10.0 mi SSW 6.9 mph - N/A   Clear
9:35 PM 48.2 °F - 3.2 °F 16% 29.98 in 10.0 mi WSW 4.6 mph - N/A   Clear
9:55 PM 50.0 °F - 5.0 °F 16% 29.98 in 10.0 mi WSW 5.8 mph - N/A   Clear
10:15 PM 51.8 °F - 5.0 °F 15% 29.99 in 10.0 mi SW 3.5 mph - N/A   Clear
10:35 PM 51.8 °F - 5.0 °F 15% 29.99 in 10.0 mi South 4.6 mph - N/A   Clear
10:55 PM 50.0 °F - 5.0 °F 16% 30.00 in 10.0 mi SSW 5.8 mph - N/A   Clear
11:15 PM 50.0 °F - 6.8 °F 17% 29.99 in 10.0 mi SW 5.8 mph - N/A   Clear
11:35 PM 46.4 °F 42.9 °F 6.8 °F 20% 29.98 in 10.0 mi South 6.9 mph - N/A   Clear
11:55 PM 48.2 °F - 6.8 °F 19% 29.99 in 10.0 mi SSW 8.1 mph - N/A   Clear